Погода в Усть-Долыссах

Россия / Псковская область     56°08′05″N   29°39′02″E
темп.,
°C
ветер,
м/с
пор.,
м/с
влажн.,
%
обл.,
%
осадки,
мм/ч
давл.,
гПа
погр.,
м
20 апреля, вт
вт2000:00+8в387597 0.0 1022382
03:00+6св267999 0.0 1021208
06:00+6всв3685100 0.1 1019290
09:00+5в3692100 1.4 1019641
12:00+5в3690100 1.6 1018652
15:00+7в4576100 1.8 1017926
18:00+6в2689100 0.1 1016812
21:00+4в2797100 0.2 1015729
21 апреля, ср
ср2100:00+5ссв1396100 0.1 1013198
03:00+4с249599 0.1 1011187
06:00+4с2496100 0.1 1009213
09:00+5ссз248799 0.1 1008512
12:00+8сз356596 0.3 10061318
15:00+9зсз3562100 0.7 10061249
18:00+9з356642 0.4 1006887
21:00+5юз22805 0.4 100728
22 апреля, чт
чт2200:00+4ююз268877 0.0 1007130
03:00+4ю389226 0.0 1007181
06:00+3ююз2696100 0.1 1008128
09:00+8ююз367963 0.2 1008426
12:00+13ююз47495 0.0 10081812
15:00+13ююз375096 0.0 10071751
18:00+11юз587197 1.1 10081018
21:00+6зюз258299 1.5 1010208
23 апреля, пт
пт2300:00+4ююз2383100 0.0 101081
03:00+5ю2485100 0.1 1009138
06:00+2з2497100 1.9 1009274
09:00+4юз368563 2.1 1010702
12:00+7юз5953100 0.2 10102066
15:00+8зюз684899 0.3 10102002
18:00+8юз464531 0.0 10101955
21:00+3зюз25735 0.1 101194
24 апреля, сб
сб2400:00+2юз26835 0.0 1011164
03:000зюз249388 0.0 1011103
06:00−1зюз269819 0.0 1011202
09:00+3юз466682 0.0 10101106
12:00+4юз4654100 0.1 10101401
15:00+6юз4656100 0.8 10091511
18:00+5зюз456084 0.8 10091319
21:00+1зюз238664 0.9 101068